Weather History for Yankton, SD

Change the Weather History Date:

Tuesday, May 13, 2014

  Actual Average Record
Temperature  
Mean Temperature 48 °F -  
Max Temperature 59 °F 69 °F 89 °F (1988)
Min Temperature 37 °F 43 °F 30 °F (1953)
Degree Days  
Heating Degree Days 17    
Moisture  
Dew Point 33 °F    
Average Humidity 59    
Maximum Humidity 81    
Minimum Humidity 36    
Precipitation  
Precipitation 0.00 in - - ()
Sea Level Pressure  
Sea Level Pressure 30.21 in    
Wind  
Wind Speed 14 mph (NW)    
Max Wind Speed 21 mph    
Max Gust Speed 30 mph    
Visibility 10 miles    
Events      
Averages and records for this station are not official NWS values.
T = Trace of Precipitation, MM = Missing Value Source: NWS Daily Summary

Daily Weather History Graph

Daily Weather History Graph

Search for Another Location

Airport:

Trip Planner

Search our weather history database for the weather conditions in past years. The results will help you decide how hot, cold, wet, or windy it might be!

Date:

Astronomy

May. 13, 2014 Rise Set
Actual Time 6:08 AM CDT 8:43 PM CDT
Civil Twilight 5:36 AM CDT 9:16 PM CDT
Nautical Twilight 4:55 AM CDT 9:56 PM CDT
Astronomical Twilight 4:10 AM CDT 10:43 PM CDT
Moon 7:45 PM CDT (5/13) 5:28 AM CDT (5/13)
Length of Visible Light 15h 39m
Length of Day
14h 35m
Waxing Gibbous, 99% of the Moon is Illuminated
May 13
Waxing Gibbous
May 14
Full
May 21
Last Quarter
May 28
New
Jun 5
First Quarter

Hourly Weather History & Observations

Time (CDT) Temp. Windchill Dew Point Humidity Pressure Visibility Wind Dir Wind Speed Gust Speed Precip Events Conditions
12:15 AM 44.6 °F 38.1 °F 39.2 °F 81% 30.09 in 10.0 mi NW 13.8 mph - N/A   Overcast
12:35 AM 44.6 °F 37.2 °F 39.2 °F 81% 30.09 in 10.0 mi NW 17.3 mph 24.2 mph N/A   Overcast
1:15 AM 46.4 °F 39.2 °F 39.2 °F 76% 30.11 in 10.0 mi NW 18.4 mph 24.2 mph N/A   Overcast
1:35 AM 44.6 °F 37.4 °F 39.2 °F 81% 30.11 in 10.0 mi NW 16.1 mph 23.0 mph N/A   Mostly Cloudy
1:55 AM 44.6 °F 37.8 °F 37.4 °F 76% 30.12 in 10.0 mi NW 15.0 mph - N/A   Clear
2:35 AM 42.8 °F 36.2 °F 37.4 °F 81% 30.13 in 10.0 mi WNW 12.7 mph - N/A   Clear
2:55 AM 42.8 °F 35.4 °F 35.6 °F 76% 30.13 in 10.0 mi WNW 15.0 mph - N/A   Clear
3:15 AM 41.0 °F 33.1 °F 35.6 °F 81% 30.13 in 10.0 mi WNW 15.0 mph - N/A   Clear
3:35 AM 39.2 °F 31.2 °F 33.8 °F 81% 30.13 in 10.0 mi WNW 13.8 mph - N/A   Clear
3:55 AM 39.2 °F 31.6 °F 33.8 °F 81% 30.14 in 10.0 mi WNW 12.7 mph - N/A   Clear
4:15 AM 39.2 °F 31.6 °F 33.8 °F 81% 30.14 in 10.0 mi WNW 12.7 mph - N/A   Clear
4:35 AM 39.2 °F 31.2 °F 33.8 °F 81% 30.14 in 10.0 mi WNW 13.8 mph 19.6 mph N/A   Clear
4:55 AM 39.2 °F 31.2 °F 33.8 °F 81% 30.14 in 10.0 mi WNW 13.8 mph - N/A   Clear
5:15 AM 39.2 °F 31.6 °F 32.0 °F 75% 30.14 in 10.0 mi WNW 12.7 mph - N/A   Clear
5:35 AM 37.4 °F 29.3 °F 30.2 °F 75% 30.15 in 10.0 mi WNW 12.7 mph - N/A   Clear
5:55 AM 37.4 °F 29.3 °F 32.0 °F 81% 30.15 in 10.0 mi WNW 12.7 mph - N/A   Clear
6:15 AM 37.4 °F 29.8 °F 32.0 °F 81% 30.16 in 10.0 mi WNW 11.5 mph - N/A   Clear
6:35 AM 37.4 °F 29.3 °F 30.2 °F 75% 30.16 in 10.0 mi WNW 12.7 mph - N/A   Clear
6:55 AM 37.4 °F 29.3 °F 32.0 °F 81% 30.17 in 10.0 mi WNW 12.7 mph - N/A   Clear
7:15 AM 39.2 °F 31.6 °F 33.8 °F 81% 30.18 in 10.0 mi WNW 12.7 mph - N/A   Clear
8:15 AM 42.8 °F 35.1 °F 33.8 °F 70% 30.19 in 10.0 mi WNW 16.1 mph - N/A   Clear
8:35 AM 44.6 °F 37.8 °F 33.8 °F 66% 30.20 in 10.0 mi NW 15.0 mph - N/A   Clear
8:55 AM 46.4 °F 40.1 °F 35.6 °F 66% 30.20 in 10.0 mi NW 15.0 mph 19.6 mph N/A   Clear
9:15 AM 46.4 °F 39.5 °F 35.6 °F 66% 30.21 in 10.0 mi NW 17.3 mph 20.7 mph N/A   Clear
9:55 AM 48.2 °F - 37.4 °F 66% 30.21 in 10.0 mi NW 13.8 mph 18.4 mph N/A   Clear
11:35 AM 53.6 °F - 30.2 °F 41% 30.23 in 10.0 mi NW 20.7 mph 29.9 mph N/A   Scattered Clouds
11:55 AM 53.6 °F - 30.2 °F 41% 30.24 in 10.0 mi NW 19.6 mph 29.9 mph N/A   Mostly Cloudy
12:35 PM 53.6 °F - 30.2 °F 41% 30.25 in 10.0 mi NW 19.6 mph 28.8 mph N/A   Mostly Cloudy
12:55 PM 55.4 °F - 30.2 °F 38% 30.25 in 10.0 mi NW 19.6 mph 26.5 mph N/A   Mostly Cloudy
1:15 PM 55.4 °F - 33.8 °F 44% 30.25 in 10.0 mi NW 16.1 mph 21.9 mph N/A   Mostly Cloudy
1:35 PM 55.4 °F - 33.8 °F 44% 30.25 in 10.0 mi NW 19.6 mph 27.6 mph N/A   Mostly Cloudy
1:55 PM 55.4 °F - 32.0 °F 41% 30.25 in 10.0 mi NW 20.7 mph 24.2 mph N/A   Mostly Cloudy
2:15 PM 57.2 °F - 32.0 °F 38% 30.26 in 10.0 mi NW 19.6 mph 26.5 mph N/A   Mostly Cloudy
2:35 PM 55.4 °F - 33.8 °F 44% 30.25 in 10.0 mi NW 19.6 mph 24.2 mph N/A   Mostly Cloudy
2:55 PM 55.4 °F - 30.2 °F 38% 30.25 in 10.0 mi NW 17.3 mph 26.5 mph N/A   Scattered Clouds
3:15 PM 55.4 °F - 30.2 °F 38% 30.24 in 10.0 mi WNW 17.3 mph 25.3 mph N/A   Partly Cloudy
3:35 PM 55.4 °F - 32.0 °F 41% 30.24 in 10.0 mi NW 17.3 mph 23.0 mph N/A   Scattered Clouds
3:55 PM 59.0 °F - 33.8 °F 39% 30.24 in 10.0 mi NNW 16.1 mph 26.5 mph N/A   Scattered Clouds
4:15 PM 57.2 °F - 32.0 °F 38% 30.23 in 10.0 mi NW 19.6 mph 23.0 mph N/A   Scattered Clouds
4:35 PM 57.2 °F - 32.0 °F 38% 30.23 in 10.0 mi NW 17.3 mph 25.3 mph N/A   Mostly Cloudy
4:55 PM 57.2 °F - 30.2 °F 36% 30.23 in 10.0 mi NW 17.3 mph 23.0 mph N/A   Scattered Clouds
5:15 PM 57.2 °F - 30.2 °F 36% 30.23 in 10.0 mi NNW 13.8 mph 21.9 mph N/A   Scattered Clouds
5:35 PM 57.2 °F - 32.0 °F 38% 30.23 in 10.0 mi NNW 13.8 mph - N/A   Scattered Clouds
5:55 PM 59.0 °F - 33.8 °F 39% 30.23 in 10.0 mi NW 15.0 mph 18.4 mph N/A   Scattered Clouds
6:15 PM 57.2 °F - 30.2 °F 36% 30.23 in 10.0 mi NNW 12.7 mph - N/A   Scattered Clouds
6:35 PM 57.2 °F - 30.2 °F 36% 30.22 in 10.0 mi NNW 16.1 mph 25.3 mph N/A   Scattered Clouds
6:55 PM 57.2 °F - 30.2 °F 36% 30.23 in 10.0 mi NNW 9.2 mph - N/A   Scattered Clouds
7:15 PM 55.4 °F - 30.2 °F 38% 30.23 in 10.0 mi NNW 9.2 mph - N/A   Scattered Clouds
7:35 PM 55.4 °F - 32.0 °F 41% 30.23 in 10.0 mi NNW 10.4 mph - N/A   Clear
7:55 PM 53.6 °F - 33.8 °F 47% 30.24 in 10.0 mi NNW 8.1 mph - N/A   Clear
8:15 PM 51.8 °F - 32.0 °F 47% 30.24 in 10.0 mi NNW 6.9 mph - N/A   Clear
8:35 PM 50.0 °F - 33.8 °F 54% 30.25 in 10.0 mi NNW 4.6 mph - N/A   Clear
8:55 PM 48.2 °F - 33.8 °F 58% 30.25 in 10.0 mi NW 4.6 mph - N/A   Clear
9:15 PM 50.0 °F - 33.8 °F 54% 30.26 in 10.0 mi NW 4.6 mph - N/A   Clear
9:55 PM 46.4 °F 44.3 °F 33.8 °F 62% 30.27 in 10.0 mi NW 4.6 mph - N/A   Clear
10:15 PM 46.4 °F 45.2 °F 33.8 °F 62% 30.28 in 10.0 mi NW 3.5 mph - N/A   Clear
10:35 PM 46.4 °F - 33.8 °F 62% 30.28 in 10.0 mi Calm Calm - N/A   Clear
10:55 PM 46.4 °F 44.3 °F 33.8 °F 62% 30.28 in 10.0 mi WSW 4.6 mph - N/A   Clear
11:15 PM 44.6 °F 41.4 °F 33.8 °F 66% 30.28 in 10.0 mi SW 5.8 mph - N/A   Clear
11:35 PM 44.6 °F 43.1 °F 35.6 °F 71% 30.28 in 10.0 mi SSW 3.5 mph - N/A   Clear
11:55 PM 42.8 °F 40.1 °F 35.6 °F 76% 30.28 in 10.0 mi SSW 4.6 mph - N/A   Clear